[[{"header":{"parameterUnit":"m.s-1","parameterCategory":2,"la1":30.2991,"la2":30.254,"lo1":-89.0895,"lo2":-89.0444,"dy":0.0017,"dx":0.0017,"nx":28,"ny":28,"refTime":"2025-08-02T09:00:00:Z","depth":"0","parameterNumber":2,"parameterNumberName":"U-component_of_CURRENTS"},"data":[0,0,0,0,0,0,0,0,0,0,0,0,0,0,0,0,0,0,0,0,0,0,0,0,0,0,0,0,0,0,0,0,0,0,0,0,0,0,0,0,0,0,0,0,0,0,0,0,0,0,0,0,0,0,0,0,0,0,-0.3411,-0.3411,0,-0.3403,-0.3403,-0.3402,-0.3383,-0.3383,-0.3383,-0.3383,-0.3318,-0.3316,-0.3314,0,0,0,0,0,0,0,0,0,0,0,0,0,-0.3355,-0.3356,-0.3411,-0.3411,-0.3412,-0.3403,-0.3403,-0.3402,-0.3383,-0.3383,-0.3383,-0.3383,-0.3319,-0.3316,-0.3314,0,0,0,0,0,0,0,0,0,0,0,0,0,-0.336,-0.3356,-0.3411,-0.3406,-0.3406,-0.3404,-0.3403,-0.3402,-0.3382,-0.3383,-0.3383,-0.3383,-0.3319,-0.3317,-0.3314,-0.3289,0,0,-0.3305,-0.3304,0,0,0,0,0,0,0,0,-0.336,-0.3362,-0.3406,-0.3407,-0.3407,-0.34,-0.336,-0.3364,-0.3382,-0.3384,-0.3383,-0.3384,-0.3344,-0.334,-0.3328,-0.3286,-0.3284,-0.3305,-0.3303,-0.3302,-0.3301,0,0,0,0,0,0,0,-0.336,-0.3362,-0.3401,-0.3407,-0.3407,-0.3387,-0.3388,-0.336,-0.3356,-0.3384,-0.3384,-0.3394,-0.3343,-0.3331,-0.3327,-0.3283,-0.3305,-0.3302,-0.33,-0.3299,-0.3244,-0.3244,0,0,0,0,0,0,-0.3377,-0.3362,-0.3401,-0.3401,-0.3391,-0.3388,-0.3389,-0.3396,-0.3358,-0.3355,-0.3394,-0.3394,-0.3336,-0.333,-0.3324,-0.334,-0.3302,-0.3299,-0.3297,-0.3244,-0.3244,-0.3244,0,0,0,0,0,0,-0.3376,-0.3381,-0.3402,-0.3387,-0.3389,-0.339,-0.3398,-0.3396,-0.3386,-0.3367,-0.3362,-0.3388,-0.3336,-0.3328,-0.3306,-0.3336,-0.3298,-0.3295,-0.3243,-0.3244,-0.3244,-0.3342,0,0,0,0,0,0,-0.3374,-0.338,-0.3376,-0.3388,-0.3391,-0.3429,-0.3398,-0.3396,-0.3396,-0.3394,-0.336,-0.3354,-0.3336,-0.331,-0.3303,-0.3331,-0.3293,-0.3243,-0.3243,-0.3244,-0.3338,-0.3345,-0.3352,0,0,0,0,0,-0.3372,-0.3391,-0.3376,-0.338,-0.339,-0.3432,-0.3431,-0.3427,-0.3395,-0.3412,-0.3371,-0.3355,-0.3309,-0.3308,-0.3299,-0.3328,-0.3243,-0.3243,-0.3244,-0.3335,-0.3344,-0.3351,0,0,0,0,0,0,-0.336,-0.3391,-0.3375,-0.3398,-0.3421,-0.3432,-0.3441,-0.3426,-0.3404,-0.339,-0.3352,-0.3344,-0.3342,-0.3309,-0.3309,-0.331,-0.3275,-0.3274,-0.3348,-0.3356,-0.3362,-0.339,-0.329,0,0,0,0,0,-0.3355,-0.3372,-0.3402,-0.3412,-0.343,-0.3425,-0.3431,-0.3434,-0.3425,-0.3415,-0.3386,-0.3351,-0.3336,-0.3325,-0.3306,-0.3297,-0.3272,-0.3309,-0.3315,-0.3322,-0.3336,-0.3319,-0.3327,-0.3246,-0.3246,-0.3246,0,0,-0.3348,-0.3367,-0.3373,-0.341,-0.3417,-0.3451,-0.3429,-0.3456,-0.3468,-0.341,-0.3398,-0.3374,-0.3337,-0.3341,-0.3336,-0.3318,-0.333,-0.3322,-0.3328,-0.334,-0.3321,-0.3329,-0.3336,-0.3247,-0.3246,-0.3246,0,0,-0.3362,-0.3367,-0.3391,-0.3423,-0.3457,-0.3466,-0.3477,-0.3491,-0.3486,-0.3476,-0.3443,-0.3435,-0.339,-0.3391,-0.3378,-0.3403,-0.3368,-0.3393,-0.3451,-0.3434,-0.3442,-0.3447,-0.3427,-0.343,-0.3395,-0.3395,-0.3396,0,-0.3346,-0.3384,-0.3405,-0.3446,-0.3475,-0.3476,-0.3516,-0.3516,-0.3513,-0.3519,-0.3486,-0.345,-0.342,-0.344,-0.3453,-0.3424,-0.3402,-0.3428,-0.3446,-0.3451,-0.3456,-0.3433,-0.3435,-0.34,-0.34,-0.3399,-0.3399,0,-0.3385,-0.3417,-0.3443,-0.3488,-0.3522,-0.3564,-0.3589,-0.3601,-0.3579,-0.3579,-0.3587,-0.3546,-0.3531,-0.3524,-0.3493,-0.3522,-0.3492,-0.3461,-0.3434,-0.3471,-0.3443,-0.3444,-0.3407,-0.3405,-0.3404,-0.3403,0,0,-0.333,-0.3448,-0.3448,-0.3495,-0.3554,-0.3594,-0.3624,-0.3669,-0.369,-0.3674,-0.3694,-0.3674,-0.3657,-0.3641,-0.3611,-0.36,-0.3609,-0.355,-0.3546,-0.3544,-0.3571,-0.344,-0.3427,-0.3581,-0.3581,-0.3582,-0.3539,0,-0.3343,-0.3446,-0.349,-0.3569,-0.3631,-0.3665,-0.3699,-0.3736,-0.374,-0.376,-0.374,-0.3738,-0.3699,-0.3688,-0.3681,-0.3618,-0.3615,-0.3623,-0.3522,-0.3519,-0.3411,-0.3425,-0.3126,-0.3053,-0.354,-0.354,-0.354,0,-0.3344,-0.3427,-0.3523,-0.3644,-0.367,-0.3708,-0.3782,-0.3815,-0.3853,-0.3853,-0.3863,-0.3835,-0.3827,-0.3774,-0.3717,-0.372,-0.3664,-0.3616,-0.3612,-0.3459,-0.3389,-0.3092,-0.3036,-0.2924,-0.3541,-0.3541,-0.354,0,-0.3299,-0.3435,-0.3518,-0.3561,-0.3694,-0.3731,-0.3783,-0.384,-0.3868,-0.3906,-0.3902,-0.3909,-0.3857,-0.3825,-0.3724,-0.3716,-0.365,-0.3617,-0.3459,-0.3449,-0.3158,-0.3121,-0.2989,-0.3595,-0.3595,-0.3595,-0.3595,0,-0.329,-0.3349,-0.3512,-0.3558,-0.3657,-0.3739,-0.3809,-0.3858,-0.3909,-0.392,-0.3939,-0.3904,-0.3858,-0.3806,-0.3754,-0.3599,-0.3668,-0.3474,-0.3429,-0.3181,-0.3148,-0.3007,-0.306,-0.3593,-0.3594,-0.3594,-0.3594,0,-0.3206,-0.3315,-0.3429,-0.3592,-0.3638,-0.3703,-0.3817,-0.3853,-0.3904,-0.3908,-0.3907,-0.3879,-0.3789,-0.3765,-0.3676,-0.3575,-0.3385,-0.3431,-0.3145,-0.3067,-0.2779,-0.2849,-0.2778,-0.2724,-0.3226,-0.3222,-0.3219,0,-0.3162,-0.3219,-0.3426,-0.3489,-0.3558,-0.3666,-0.3718,-0.3828,-0.384,-0.3856,-0.3822,-0.3769,-0.3657,-0.351,-0.3349,-0.3238,-0.326,-0.2908,-0.2836,-0.2723,-0.277,-0.2857,-0.2825,-0.249,-0.2481,-0.2474,-0.2469,0,-0.3069,-0.3153,-0.3254,-0.339,-0.3476,-0.3568,-0.3636,-0.3648,-0.372,-0.3695,-0.3589,-0.351,-0.335,-0.3027,-0.2908,-0.2824,-0.2765,-0.2757,-0.2691,-0.2235,-0.2266,-0.2202,-0.2589,-0.2405,-0.2412,-0.2416,-0.242,-0.2422,-0.2956,-0.3011,-0.3131,-0.3233,-0.3341,-0.3359,-0.3295,-0.3354,-0.331,-0.3127,-0.323,-0.2909,-0.2673,-0.2413,-0.2365,-0.2056,-0.2337,-0.19,-0.2013,-0.2125,-0.2016,-0.2281,-0.2021,-0.2025,-0.2028,-0.2031,-0.2034,0,-0.2721,-0.2813,-0.294,-0.3014,-0.298,-0.3122,-0.3127,-0.2972,-0.2778,-0.2674,-0.2495,-0.2011,-0.1731,-0.1608,-0.1354,-0.1265,-0.1305,-0.1286,-0.1298,-0.1319,-0.1519,-0.142,-0.0951,-0.0951,-0.0951,-0.0951,-0.0951,-0.0952,-0.2595,-0.2597,-0.2679,-0.2569,-0.2602,-0.241,-0.2322,-0.2198,-0.2041,-0.1609,-0.1246,-0.1077,-0.1014,-0.0961,-0.0804,-0.0784,-0.0858,-0.0836,-0.1056,-0.1114,-0.1179,-0.1241,-0.1151,-0.0634,-0.0634,-0.0669,-0.0669,-0.067]},{"header":{"parameterUnit":"m.s-1","parameterCategory":2,"la1":30.2991,"la2":30.254,"lo1":-89.0895,"lo2":-89.0444,"dy":0.0017,"dx":0.0017,"nx":28,"ny":28,"refTime":"2025-08-02T09:00:00:Z","depth":"0","parameterNumber":3,"parameterNumberName":"V-component_of_CURRENTS"},"data":[0,0,0,0,0,0,0,0,0,0,0,0,0,0,0,0,0,0,0,0,0,0,0,0,0,0,0,0,0,0,0,0,0,0,0,0,0,0,0,0,0,0,0,0,0,0,0,0,0,0,0,0,0,0,0,0,0,0,-0.0247,-0.0247,0,-0.0125,-0.0123,-0.0122,0.0006,0.0007,0.0009,0.001,0.0221,0.0225,0.023,0,0,0,0,0,0,0,0,0,0,0,0,0,-0.0328,-0.0327,-0.0248,-0.0246,-0.0245,-0.0126,-0.0123,-0.0121,0.0006,0.0007,0.0009,0.0011,0.0219,0.0225,0.023,0,0,0,0,0,0,0,0,0,0,0,0,0,-0.0253,-0.0326,-0.0248,-0.0171,-0.0164,-0.0126,-0.0123,-0.0121,0.0006,0.0008,0.0009,0.0011,0.0218,0.0224,0.0231,0.0232,0,0,0.0251,0.0254,0,0,0,0,0,0,0,0,-0.0258,-0.025,-0.0184,-0.0177,-0.0168,-0.0077,-0.0074,0.0,0.0005,-0.0053,0.001,0.0012,0.0125,0.0139,0.0164,0.0242,0.0251,0.0251,0.0255,0.0258,0.026,0,0,0,0,0,0,0,-0.0263,-0.0254,-0.0194,-0.0183,-0.0173,-0.0129,-0.0116,-0.0059,0.0029,-0.0048,-0.004,-0.0035,0.0131,0.0157,0.017,0.0254,0.0251,0.0257,0.0261,0.0264,0.0354,0.0353,0,0,0,0,0,0,-0.0293,-0.0259,-0.0198,-0.0191,-0.0215,-0.0129,-0.0115,-0.0104,0.0027,0.0046,-0.0037,-0.003,0.0145,0.0162,0.0178,0.0171,0.0258,0.0264,0.0268,0.0356,0.0354,0.0352,0,0,0,0,0,0,-0.0295,-0.0288,-0.0203,-0.0226,-0.0213,-0.0131,-0.012,-0.0103,-0.0076,0.0033,0.0056,-0.0028,0.0147,0.0168,0.0214,0.0181,0.0267,0.0273,0.0358,0.0355,0.0353,0.0168,0,0,0,0,0,0,-0.0298,-0.029,-0.0296,-0.0229,-0.0213,-0.0205,-0.0122,-0.0102,-0.0078,-0.0067,0.0048,0.007,0.015,0.0203,0.022,0.0192,0.0279,0.036,0.0357,0.0354,0.0176,0.016,0.0146,0,0,0,0,0,-0.0301,-0.0328,-0.0296,-0.0289,-0.0223,-0.0208,-0.0196,-0.0126,-0.0081,-0.009,-0.0007,0.0067,0.0197,0.0206,0.0227,0.02,0.0361,0.0357,0.0354,0.0183,0.0163,0.0146,0,0,0,0,0,0,-0.0362,-0.0316,-0.028,-0.0288,-0.026,-0.0188,-0.0191,-0.0143,-0.0085,-0.0066,0.0046,0.0071,0.0098,0.0171,0.0179,0.0218,0.0291,0.0292,0.0154,0.0137,0.0121,0.0101,0.0284,0,0,0,0,0,-0.0382,-0.0389,-0.0337,-0.0346,-0.0336,-0.0265,-0.0249,-0.0205,-0.0146,-0.0117,-0.004,0.0043,0.0097,0.0134,0.0195,0.0214,0.0242,0.0211,0.0196,0.0182,0.0179,0.0203,0.0189,0.0341,0.0341,0.0341,0,0,-0.0411,-0.0386,-0.0389,-0.0361,-0.0325,-0.0345,-0.025,-0.024,-0.0248,-0.0105,-0.009,-0.0011,0.0089,0.011,0.0129,0.0169,0.0137,0.0178,0.0165,0.017,0.0198,0.0183,0.017,0.0338,0.0339,0.0339,0,0,-0.0493,-0.0447,-0.049,-0.0478,-0.0448,-0.0406,-0.0414,-0.0353,-0.0315,-0.0296,-0.0197,-0.0143,-0.0057,0.0006,0.005,-0.0013,0.0051,0.0008,-0.0079,-0.0058,-0.007,-0.008,-0.0144,-0.0159,0.0005,0.0005,0.0005,0,-0.0533,-0.0566,-0.0503,-0.0544,-0.0544,-0.0449,-0.0495,-0.0457,-0.039,-0.0355,-0.0316,-0.0187,-0.0109,-0.0071,-0.0092,-0.0049,-0.005,-0.0023,-0.008,-0.0089,-0.0096,-0.0158,-0.0172,-0.0004,-0.0003,-0.0002,-0.0001,0,-0.0648,-0.0673,-0.0699,-0.0715,-0.0708,-0.0731,-0.0674,-0.0646,-0.0583,-0.0528,-0.0472,-0.037,-0.0282,-0.0262,-0.0195,-0.0204,-0.0199,-0.0112,-0.0042,-0.0124,-0.0184,-0.0195,-0.0018,-0.0014,-0.0012,-0.0009,0,0,-0.0736,-0.0776,-0.0785,-0.081,-0.0794,-0.0796,-0.0804,-0.0768,-0.0744,-0.068,-0.0659,-0.057,-0.0483,-0.0428,-0.0338,-0.0319,-0.0403,-0.025,-0.0244,-0.0331,-0.0428,-0.03,-0.0299,-0.0323,-0.0323,-0.0324,-0.0479,0,-0.0844,-0.0965,-0.0939,-0.1025,-0.1074,-0.0982,-0.0988,-0.0934,-0.086,-0.0817,-0.0704,-0.065,-0.0557,-0.0512,-0.0486,-0.0398,-0.0426,-0.0373,-0.0318,-0.0319,-0.0206,-0.0303,-0.0149,-0.0259,-0.0489,-0.0491,-0.0492,0,-0.0963,-0.1024,-0.1149,-0.1158,-0.1163,-0.119,-0.1135,-0.1123,-0.1027,-0.0962,-0.0884,-0.0784,-0.074,-0.0647,-0.0592,-0.0563,-0.0527,-0.0477,-0.0479,-0.0289,-0.0206,-0.0194,-0.0269,-0.0078,-0.0507,-0.0506,-0.0505,0,-0.1069,-0.1151,-0.1251,-0.1268,-0.1279,-0.128,-0.1257,-0.1171,-0.1136,-0.1055,-0.1025,-0.0933,-0.0895,-0.0819,-0.0703,-0.0656,-0.0664,-0.0576,-0.0456,-0.0451,-0.0268,-0.0242,-0.0149,-0.0577,-0.0577,-0.0577,-0.0576,0,-0.1196,-0.1263,-0.1307,-0.1367,-0.1426,-0.1381,-0.1388,-0.1333,-0.1259,-0.1238,-0.1109,-0.1083,-0.0929,-0.0884,-0.0786,-0.0664,-0.0735,-0.0502,-0.0466,-0.0335,-0.0314,-0.009,-0.0045,-0.0582,-0.0581,-0.058,-0.0579,0,-0.1308,-0.1348,-0.1454,-0.1492,-0.1493,-0.1534,-0.1486,-0.1469,-0.1392,-0.1372,-0.1357,-0.1231,-0.1148,-0.102,-0.0914,-0.0764,-0.0537,-0.0611,-0.0508,-0.0453,-0.0078,-0.0051,0.0008,0.0118,-0.0496,-0.0493,-0.0491,0,-0.1375,-0.1457,-0.1553,-0.1597,-0.162,-0.1645,-0.1639,-0.1557,-0.1536,-0.1455,-0.1464,-0.1374,-0.1265,-0.1071,-0.0801,-0.0629,-0.0509,-0.0388,-0.0221,-0.0055,-0.0002,-0.0003,0.0085,-0.0121,-0.0116,-0.0112,-0.0109,0,-0.1487,-0.1531,-0.1617,-0.1709,-0.1746,-0.1769,-0.1762,-0.1763,-0.1666,-0.1631,-0.156,-0.1464,-0.1213,-0.0866,-0.0597,-0.0463,-0.0191,-0.0294,-0.0127,0.0295,0.0302,0.0426,-0.0099,-0.0072,-0.0076,-0.0079,-0.0081,-0.0082,-0.1528,-0.1616,-0.1706,-0.1772,-0.1828,-0.1844,-0.1818,-0.1798,-0.1753,-0.1554,-0.1544,-0.1172,-0.0823,-0.0356,-0.0255,0.0198,0.0073,0.0394,0.039,0.0354,0.0564,0.009,0.0197,0.0195,0.0193,0.0192,0.019,0,-0.1507,-0.161,-0.1722,-0.1787,-0.1805,-0.1831,-0.1835,-0.1749,-0.1665,-0.136,-0.1167,-0.0472,-0.0095,0.0252,0.0721,0.091,0.0921,0.0977,0.1025,0.1068,0.0664,0.08,0.1054,0.1053,0.1053,0.1053,0.1053,0.1053,-0.1489,-0.1583,-0.1645,-0.168,-0.1719,-0.1672,-0.1644,-0.1561,-0.1311,-0.0737,-0.0126,0.0283,0.0679,0.1058,0.1439,0.1463,0.1585,0.154,0.155,0.1318,0.1264,0.1213,0.1358,0.1725,0.1725,0.2029,0.2032,0.2034]}],[{"header":{"parameterUnit":"m.s-1","parameterCategory":2,"la1":30.2991,"la2":30.254,"lo1":-89.0895,"lo2":-89.0444,"dy":0.0017,"dx":0.0017,"nx":28,"ny":28,"refTime":"2025-08-02T09:00:00:Z","depth":"2","parameterNumber":2,"parameterNumberName":"U-component_of_CURRENTS"},"data":[0,0,0,0,0,0,0,0,0,0,0,0,0,0,0,0,0,0,0,0,0,0,0,0,0,0,0,0,0,0,0,0,0,0,0,0,0,0,0,0,0,0,0,0,0,0,0,0,0,0,0,0,0,0,0,0,0,0,-0.3407,-0.3408,0,-0.3445,-0.3445,-0.3445,-0.3421,-0.342,-0.3419,-0.3419,-0.333,-0.3328,-0.3327,0,0,0,0,0,0,0,0,0,0,0,0,0,-0.3325,-0.3326,-0.3407,-0.3408,-0.3409,-0.3445,-0.3445,-0.3445,-0.3421,-0.342,-0.3419,-0.3418,-0.3331,-0.3329,-0.3327,0,0,0,0,0,0,0,0,0,0,0,0,0,-0.3357,-0.3326,-0.3407,-0.3405,-0.3405,-0.3445,-0.3445,-0.3445,-0.3421,-0.342,-0.3419,-0.3418,-0.3331,-0.3329,-0.3326,-0.3332,0,0,-0.3319,-0.3318,0,0,0,0,0,0,0,0,-0.3355,-0.3359,-0.3404,-0.3405,-0.3406,-0.3431,-0.3384,-0.3403,-0.3421,-0.341,-0.3419,-0.3417,-0.3356,-0.3351,-0.3356,-0.3328,-0.3324,-0.3318,-0.3317,-0.3316,-0.3315,0,0,0,0,0,0,0,-0.3353,-0.3358,-0.3418,-0.3405,-0.3406,-0.3406,-0.3408,-0.3388,-0.3383,-0.3411,-0.341,-0.3422,-0.3355,-0.3359,-0.3354,-0.3323,-0.3319,-0.3316,-0.3315,-0.3314,-0.3276,-0.3277,0,0,0,0,0,0,-0.3359,-0.3356,-0.3417,-0.3419,-0.3382,-0.3408,-0.3411,-0.342,-0.3386,-0.3382,-0.3423,-0.3421,-0.3364,-0.3357,-0.335,-0.3281,-0.3316,-0.3313,-0.3312,-0.3276,-0.3276,-0.3277,0,0,0,0,0,0,-0.3356,-0.3363,-0.3415,-0.3392,-0.3399,-0.3411,-0.3421,-0.3422,-0.343,-0.3397,-0.339,-0.3432,-0.3362,-0.3354,-0.3346,-0.328,-0.3312,-0.331,-0.3275,-0.3276,-0.3277,-0.3191,0,0,0,0,0,0,-0.3354,-0.3362,-0.3367,-0.3392,-0.3401,-0.3426,-0.3423,-0.3423,-0.3441,-0.3438,-0.3402,-0.3393,-0.3361,-0.335,-0.3343,-0.3277,-0.3308,-0.3275,-0.3276,-0.3276,-0.3193,-0.3188,-0.3184,0,0,0,0,0,-0.3351,-0.3374,-0.3367,-0.3374,-0.3408,-0.3426,-0.3429,-0.3431,-0.3443,-0.3437,-0.3434,-0.3394,-0.335,-0.335,-0.3341,-0.3272,-0.3274,-0.3275,-0.3276,-0.3195,-0.3189,-0.3185,0,0,0,0,0,0,-0.3337,-0.3375,-0.3367,-0.3397,-0.3401,-0.3423,-0.3439,-0.3442,-0.3439,-0.3447,-0.3412,-0.3402,-0.3358,-0.336,-0.336,-0.3274,-0.3301,-0.3301,-0.3242,-0.3236,-0.3232,-0.3172,-0.3306,0,0,0,0,0,-0.3338,-0.3365,-0.3381,-0.3401,-0.3413,-0.3427,-0.3438,-0.3441,-0.3449,-0.3448,-0.3419,-0.34,-0.3359,-0.3338,-0.3311,-0.328,-0.3285,-0.3234,-0.323,-0.3226,-0.3177,-0.3142,-0.3128,-0.3281,-0.3281,-0.3281,0,0,-0.3337,-0.3364,-0.3376,-0.34,-0.3415,-0.3385,-0.343,-0.3458,-0.3411,-0.3438,-0.3382,-0.3383,-0.3354,-0.33,-0.328,-0.329,-0.3206,-0.3227,-0.3223,-0.3176,-0.3141,-0.3125,-0.3111,-0.3282,-0.3282,-0.3281,0,0,-0.3316,-0.3376,-0.336,-0.3368,-0.3391,-0.3395,-0.3402,-0.3418,-0.3407,-0.3378,-0.3371,-0.3338,-0.3303,-0.3241,-0.3211,-0.3178,-0.3185,-0.3193,-0.3106,-0.3074,-0.3059,-0.3045,-0.3107,-0.31,-0.3188,-0.3188,-0.3188,0,-0.3299,-0.3285,-0.3356,-0.3329,-0.3331,-0.3388,-0.3344,-0.3338,-0.3338,-0.3315,-0.3346,-0.3264,-0.3244,-0.3135,-0.3123,-0.3149,-0.3189,-0.3117,-0.3061,-0.3048,-0.3035,-0.3101,-0.3094,-0.3184,-0.3184,-0.3185,-0.3185,0,-0.3228,-0.3225,-0.3235,-0.3203,-0.3212,-0.3216,-0.3216,-0.3211,-0.3222,-0.3194,-0.3129,-0.3121,-0.3065,-0.3057,-0.307,-0.297,-0.3052,-0.3058,-0.3057,-0.3013,-0.3089,-0.3082,-0.3178,-0.3179,-0.3181,-0.3182,0,0,-0.3157,-0.3173,-0.3167,-0.314,-0.3161,-0.3157,-0.311,-0.3064,-0.3012,-0.3006,-0.2921,-0.286,-0.2885,-0.2856,-0.2875,-0.2839,-0.2815,-0.2916,-0.2917,-0.295,-0.2828,-0.2611,-0.2585,-0.2824,-0.2821,-0.2818,-0.2942,0,-0.3061,-0.2993,-0.3026,-0.2954,-0.2929,-0.2984,-0.2921,-0.2898,-0.2888,-0.2826,-0.2812,-0.275,-0.28,-0.2793,-0.2756,-0.2813,-0.2784,-0.2785,-0.2887,-0.2891,-0.2676,-0.2561,-0.2352,-0.2415,-0.2936,-0.2935,-0.2934,0,-0.294,-0.2929,-0.2847,-0.2839,-0.2831,-0.2796,-0.2756,-0.2713,-0.2659,-0.2648,-0.2604,-0.2616,-0.2581,-0.2624,-0.2653,-0.2674,-0.272,-0.2757,-0.2763,-0.256,-0.2654,-0.2531,-0.2385,-0.2924,-0.2925,-0.2926,-0.2926,0,-0.2832,-0.2798,-0.274,-0.2738,-0.2722,-0.2706,-0.2703,-0.2659,-0.2615,-0.2557,-0.2523,-0.2495,-0.2532,-0.2535,-0.2654,-0.2661,-0.2705,-0.2727,-0.2568,-0.2563,-0.2388,-0.2366,-0.2668,-0.2668,-0.2667,-0.2667,-0.2667,0,-0.271,-0.2664,-0.2697,-0.2665,-0.2594,-0.2639,-0.2571,-0.2536,-0.2502,-0.2424,-0.2444,-0.2408,-0.2512,-0.2568,-0.2622,-0.259,-0.2693,-0.2493,-0.2518,-0.2363,-0.2338,-0.2772,-0.2782,-0.2672,-0.2671,-0.267,-0.2669,0,-0.257,-0.259,-0.2534,-0.2541,-0.2538,-0.2501,-0.2515,-0.2457,-0.2448,-0.2356,-0.2342,-0.2398,-0.2455,-0.2539,-0.2621,-0.2559,-0.254,-0.2503,-0.2355,-0.2347,-0.2443,-0.2449,-0.2284,-0.2276,-0.2269,-0.2263,-0.2259,0,-0.2489,-0.2441,-0.2437,-0.2419,-0.2426,-0.2419,-0.239,-0.2404,-0.2352,-0.2339,-0.2269,-0.2338,-0.2325,-0.2378,-0.2285,-0.2261,-0.2434,-0.2035,-0.1888,-0.233,-0.2376,-0.2393,-0.2407,-0.1727,-0.1718,-0.1711,-0.1705,0,-0.2335,-0.234,-0.2299,-0.2274,-0.226,-0.2206,-0.2192,-0.2169,-0.2173,-0.2135,-0.2129,-0.2141,-0.2118,-0.1975,-0.1898,-0.186,-0.1993,-0.1871,-0.2371,-0.1792,-0.1794,-0.1843,-0.1878,-0.1642,-0.1648,-0.1653,-0.1656,-0.1659,-0.2229,-0.217,-0.2145,-0.2095,-0.2063,-0.1977,-0.1922,-0.1948,-0.1892,-0.1809,-0.1944,-0.1851,-0.1797,-0.1497,-0.1444,-0.1373,-0.149,-0.1421,-0.145,-0.1484,-0.1331,-0.1311,-0.1052,-0.1055,-0.1057,-0.106,-0.1062,0,-0.2085,-0.2027,-0.1978,-0.1891,-0.1783,-0.1819,-0.1738,-0.1674,-0.1626,-0.1586,-0.1577,-0.13,-0.1155,-0.1148,-0.0873,-0.0776,-0.0858,-0.0788,-0.0906,-0.0964,-0.1018,-0.0849,-0.0439,-0.0438,-0.0437,-0.0436,0,0,-0.2009,-0.1898,-0.1854,-0.1628,-0.157,-0.1378,-0.1315,-0.1263,-0.1194,-0.1112,-0.1017,-0.1052,-0.101,-0.0687,-0.0614,-0.0492,-0.0749,-0.0468,-0.0951,-0.1145,-0.1199,-0.1342,-0.1138,0,0,0,0,0]},{"header":{"parameterUnit":"m.s-1","parameterCategory":2,"la1":30.2991,"la2":30.254,"lo1":-89.0895,"lo2":-89.0444,"dy":0.0017,"dx":0.0017,"nx":28,"ny":28,"refTime":"2025-08-02T09:00:00:Z","depth":"2","parameterNumber":3,"parameterNumberName":"V-component_of_CURRENTS"},"data":[0,0,0,0,0,0,0,0,0,0,0,0,0,0,0,0,0,0,0,0,0,0,0,0,0,0,0,0,0,0,0,0,0,0,0,0,0,0,0,0,0,0,0,0,0,0,0,0,0,0,0,0,0,0,0,0,0,0,-0.0096,-0.0095,0,0.0057,0.0059,0.0061,0.0153,0.0153,0.0153,0.0153,0.0317,0.0322,0.0326,0,0,0,0,0,0,0,0,0,0,0,0,0,-0.0213,-0.0212,-0.0096,-0.0095,-0.0093,0.0057,0.0059,0.0062,0.0153,0.0153,0.0153,0.0153,0.0316,0.0321,0.0326,0,0,0,0,0,0,0,0,0,0,0,0,0,-0.0116,-0.0211,-0.0096,-0.0034,-0.0027,0.0056,0.0059,0.0063,0.0153,0.0153,0.0153,0.0153,0.0314,0.0321,0.0327,0.0372,0,0,0.0348,0.0351,0,0,0,0,0,0,0,0,-0.0122,-0.0111,-0.0044,-0.0038,-0.0031,0.0081,0.0078,0.0165,0.0153,0.0091,0.0153,0.0152,0.0236,0.0249,0.0286,0.0379,0.0386,0.0348,0.0352,0.0355,0.0357,0,0,0,0,0,0,0,-0.0129,-0.0117,-0.003,-0.0043,-0.0035,0.0019,0.0032,0.0096,0.0167,0.0096,0.0102,0.011,0.024,0.0279,0.029,0.0389,0.0348,0.0354,0.0358,0.0361,0.0613,0.0616,0,0,0,0,0,0,-0.0164,-0.0124,-0.0035,-0.0026,-0.0084,0.002,0.0035,0.005,0.0166,0.0182,0.0109,0.0113,0.0268,0.0282,0.0296,0.0411,0.0355,0.0362,0.0365,0.0611,0.0614,0.0617,0,0,0,0,0,0,-0.0167,-0.0157,-0.0041,-0.0076,-0.0058,0.0021,0.0037,0.0053,0.0092,0.0175,0.0192,0.0131,0.0268,0.0287,0.038,0.0415,0.0365,0.0371,0.0607,0.0612,0.0615,0.0604,0,0,0,0,0,0,-0.0171,-0.0159,-0.0158,-0.0079,-0.0058,0.0039,0.0037,0.0056,0.0094,0.0101,0.02,0.0215,0.027,0.0369,0.0386,0.0424,0.0376,0.0604,0.0609,0.0614,0.0601,0.0607,0.0612,0,0,0,0,0,-0.0175,-0.0151,-0.0159,-0.0149,-0.006,0.004,0.0059,0.0117,0.0095,0.0144,0.0199,0.0212,0.0413,0.0377,0.0396,0.0436,0.0602,0.0608,0.0614,0.0598,0.0606,0.0612,0,0,0,0,0,0,-0.0196,-0.0138,-0.0145,-0.0106,-0.0037,0.0054,0.0095,0.011,0.0191,0.0186,0.0245,0.0268,0.0362,0.0405,0.0363,0.0528,0.051,0.052,0.0492,0.05,0.0505,0.0468,0.0382,0,0,0,0,0,-0.021,-0.0185,-0.0114,-0.0089,-0.0053,0.0007,0.0047,0.0085,0.0158,0.0192,0.0251,0.0322,0.0404,0.0452,0.0531,0.0617,0.0627,0.0659,0.0664,0.0668,0.0655,0.0686,0.0692,0.0636,0.0636,0.0636,0,0,-0.0231,-0.0185,-0.0183,-0.0094,-0.0042,0.0023,0.0036,0.0106,0.015,0.0196,0.0276,0.034,0.0431,0.0536,0.0582,0.0575,0.07,0.0676,0.0679,0.0662,0.0693,0.0698,0.0702,0.064,0.064,0.0639,0,0,-0.0209,-0.0198,-0.0152,-0.0094,-0.0011,0.0034,0.0046,0.0138,0.0178,0.0261,0.0304,0.0389,0.0505,0.0589,0.064,0.0724,0.0723,0.0748,0.0752,0.0783,0.0786,0.0789,0.0834,0.084,0.0756,0.0756,0.0756,0,-0.0239,-0.0175,-0.012,-0.0046,-0.002,0.0031,0.0083,0.0148,0.0249,0.0271,0.0289,0.0443,0.0534,0.064,0.0691,0.0735,0.0742,0.0711,0.0784,0.0788,0.079,0.0835,0.0843,0.0756,0.0756,0.0756,0.0756,0,-0.0155,-0.0128,-0.0088,-0.0004,0.0048,0.01,0.0176,0.0225,0.0249,0.0295,0.0387,0.0504,0.0584,0.0648,0.0705,0.0783,0.0779,0.0776,0.075,0.0794,0.0841,0.0848,0.0756,0.0756,0.0756,0.0756,0,0,-0.0196,-0.0064,-0.006,-0.0046,0.0058,0.0099,0.0174,0.0248,0.0245,0.0361,0.0366,0.0563,0.0578,0.064,0.0714,0.0773,0.0843,0.0784,0.0786,0.0799,0.0907,0.0849,0.0852,0.0829,0.083,0.083,0.0937,0,-0.0166,-0.0059,0.0006,0.0049,0.0087,0.0136,0.0183,0.0246,0.0287,0.0311,0.0426,0.0476,0.0588,0.0607,0.069,0.0791,0.0858,0.0814,0.0888,0.0891,0.0808,0.0857,0.0813,0.0897,0.0945,0.0946,0.0947,0,-0.011,-0.0062,0.0002,0.0027,0.0046,0.0078,0.0094,0.0152,0.0214,0.0237,0.0305,0.0358,0.0497,0.0543,0.0749,0.0703,0.0808,0.0889,0.0894,0.0839,0.0846,0.0861,0.091,0.096,0.0959,0.0958,0.0957,0,-0.0175,-0.0087,-0.0058,-0.0039,0.0028,0.0036,0.0067,0.0121,0.0138,0.0174,0.0158,0.0296,0.0359,0.05,0.07,0.0714,0.0872,0.0911,0.0964,0.0962,0.094,0.0932,0.1028,0.1028,0.1027,0.1027,0.1027,0,-0.0177,-0.0174,-0.0097,-0.009,-0.0103,-0.0033,-0.0047,-0.0011,0.0017,0.0018,0.0107,0.0123,0.0345,0.0461,0.0639,0.0818,0.0835,0.0965,0.098,0.094,0.0931,0.0989,0.0983,0.1031,0.103,0.1029,0.1029,0,-0.0243,-0.0183,-0.0175,-0.013,-0.0127,-0.0138,-0.011,-0.0126,-0.009,-0.01,-0.0095,0.0019,0.0168,0.0362,0.0596,0.0742,0.0906,0.0959,0.0899,0.0904,0.1002,0.0995,0.1051,0.105,0.1049,0.1048,0.1047,0,-0.0267,-0.0254,-0.0224,-0.0243,-0.0226,-0.0228,-0.0238,-0.0186,-0.0204,-0.0154,-0.0177,-0.0058,0.0028,0.0318,0.0561,0.0808,0.086,0.0913,0.0945,0.0992,0.1002,0.0997,0.0991,0.0944,0.0942,0.0941,0.094,0,-0.0338,-0.0316,-0.0305,-0.0332,-0.0353,-0.0364,-0.0371,-0.0397,-0.0342,-0.0321,-0.0268,-0.0196,0.0039,0.0286,0.0551,0.0699,0.0864,0.0892,0.0957,0.0916,0.0891,0.09,0.0899,0.0928,0.093,0.093,0.0931,0.0931,-0.0426,-0.0418,-0.0402,-0.0434,-0.0455,-0.0495,-0.0515,-0.051,-0.0498,-0.0399,-0.0288,-0.0119,0.0063,0.0445,0.059,0.0741,0.0801,0.0897,0.0902,0.0908,0.0847,0.0818,0.0833,0.0834,0.0834,0.0835,0.0835,0,-0.0567,-0.0509,-0.0513,-0.0544,-0.059,-0.0575,-0.0603,-0.0597,-0.0574,-0.0336,-0.0171,0.0024,0.0251,0.0402,0.063,0.0771,0.0781,0.0779,0.0793,0.0804,0.0813,0.0749,0.0709,0.0709,0.0709,0.0709,0,0,-0.0631,-0.0645,-0.0594,-0.0667,-0.0689,-0.0732,-0.0745,-0.0693,-0.0522,-0.0287,-0.007,0.0245,0.0346,0.0491,0.0614,0.069,0.0735,0.0683,0.0779,0.08,0.0809,0.0875,0.0785,0,0,0,0,0]}],[{"header":{"parameterUnit":"m.s-1","parameterCategory":2,"la1":30.2991,"la2":30.254,"lo1":-89.0895,"lo2":-89.0444,"dy":0.0017,"dx":0.0017,"nx":28,"ny":28,"refTime":"2025-08-02T09:00:00:Z","depth":"4","parameterNumber":2,"parameterNumberName":"U-component_of_CURRENTS"},"data":[0,0,0,0,0,0,0,0,0,0,0,0,0,0,0,0,0,0,0,0,0,0,0,0,0,0,0,0,0,0,0,0,0,0,0,0,0,0,0,0,0,0,0,0,0,0,0,0,0,0,0,0,0,0,0,0,0,0,-0.1053,-0.1054,0,-0.1158,-0.1158,-0.1159,-0.1168,-0.1168,-0.1167,-0.1167,-0.1264,-0.1267,-0.127,0,0,0,0,0,0,0,0,0,0,0,0,0,-0.0894,-0.0896,-0.1053,-0.1055,-0.1057,-0.1157,-0.1158,-0.1159,-0.1168,-0.1168,-0.1167,-0.1166,-0.1263,-0.1267,-0.127,0,0,0,0,0,0,0,0,0,0,0,0,0,-0.0971,-0.0897,-0.1052,-0.1079,-0.1083,-0.1157,-0.1158,-0.1159,-0.1168,-0.1168,-0.1167,-0.1166,-0.1262,-0.1266,-0.1271,-0.1313,0,0,-0.1285,-0.1287,0,0,0,0,0,0,0,0,-0.0966,-0.0975,-0.1073,-0.1077,-0.1082,-0.1155,-0.1139,-0.1213,-0.1168,-0.1128,-0.1167,-0.1166,-0.1232,-0.1239,-0.125,-0.1317,-0.1322,-0.1285,-0.1288,-0.129,-0.1291,0,0,0,0,0,0,0,-0.0961,-0.0971,-0.1087,-0.1075,-0.1081,-0.1098,-0.1106,-0.1152,-0.1177,-0.1132,-0.1134,-0.1158,-0.1234,-0.1246,-0.1253,-0.1323,-0.1285,-0.1289,-0.1292,-0.1294,-0.1467,-0.1469,0,0,0,0,0,0,-0.0962,-0.0966,-0.1084,-0.1091,-0.1029,-0.1101,-0.1111,-0.1126,-0.1177,-0.1186,-0.1158,-0.1158,-0.1239,-0.1248,-0.1256,-0.1333,-0.129,-0.1294,-0.1297,-0.1466,-0.1468,-0.147,0,0,0,0,0,0,-0.0958,-0.0971,-0.108,-0.1037,-0.1053,-0.1105,-0.1122,-0.1129,-0.1176,-0.1199,-0.1206,-0.1202,-0.1238,-0.125,-0.1247,-0.1336,-0.1296,-0.13,-0.1463,-0.1466,-0.1469,-0.147,0,0,0,0,0,0,-0.0953,-0.0968,-0.0984,-0.1037,-0.1056,-0.1113,-0.1124,-0.1132,-0.1192,-0.1194,-0.1239,-0.1245,-0.1239,-0.124,-0.1252,-0.1341,-0.1304,-0.1461,-0.1465,-0.1468,-0.1468,-0.1473,-0.1477,0,0,0,0,0,-0.0946,-0.094,-0.0984,-0.0999,-0.1073,-0.1114,-0.1124,-0.1154,-0.1196,-0.1198,-0.1195,-0.1245,-0.1275,-0.1241,-0.1256,-0.135,-0.1459,-0.1464,-0.1468,-0.1466,-0.1472,-0.1477,0,0,0,0,0,0,-0.0881,-0.0944,-0.0991,-0.1009,-0.1067,-0.1118,-0.111,-0.1185,-0.1194,-0.1179,-0.1225,-0.1228,-0.1276,-0.1303,-0.1267,-0.1413,-0.1397,-0.1404,-0.1391,-0.1397,-0.1402,-0.1368,-0.1308,0,0,0,0,0,-0.0882,-0.0902,-0.0972,-0.1002,-0.1001,-0.1081,-0.111,-0.1144,-0.1166,-0.1174,-0.1236,-0.1276,-0.1307,-0.1333,-0.1359,-0.142,-0.1408,-0.1505,-0.151,-0.1513,-0.1497,-0.15,-0.1502,-0.1484,-0.1484,-0.1484,0,0,-0.0876,-0.0916,-0.0931,-0.0992,-0.1015,-0.1049,-0.109,-0.1115,-0.1171,-0.1182,-0.1254,-0.1288,-0.1321,-0.1366,-0.1401,-0.1399,-0.1518,-0.1519,-0.1521,-0.1503,-0.1504,-0.1506,-0.1507,-0.1487,-0.1486,-0.1486,0,0,-0.0872,-0.0885,-0.0901,-0.0933,-0.0985,-0.1022,-0.1048,-0.1126,-0.1156,-0.1228,-0.1251,-0.1287,-0.1402,-0.1403,-0.1426,-0.1476,-0.1533,-0.1569,-0.1575,-0.1579,-0.1579,-0.1579,-0.1577,-0.1576,-0.1582,-0.1582,-0.1582,0,-0.0884,-0.0907,-0.0915,-0.0938,-0.0966,-0.1022,-0.1053,-0.109,-0.1189,-0.1209,-0.1243,-0.1378,-0.1404,-0.144,-0.1461,-0.1486,-0.1508,-0.1546,-0.158,-0.158,-0.158,-0.1577,-0.1577,-0.1582,-0.1582,-0.1582,-0.1582,0,-0.088,-0.0918,-0.0904,-0.0964,-0.0991,-0.1003,-0.1055,-0.1088,-0.1167,-0.1249,-0.1324,-0.1346,-0.1426,-0.1484,-0.1487,-0.1546,-0.1567,-0.1572,-0.1554,-0.1581,-0.1578,-0.1577,-0.1583,-0.1583,-0.1583,-0.1583,0,0,-0.0863,-0.0908,-0.0911,-0.0942,-0.0994,-0.1012,-0.104,-0.1092,-0.115,-0.124,-0.1329,-0.1378,-0.1438,-0.1464,-0.1512,-0.1531,-0.155,-0.1575,-0.1575,-0.155,-0.1579,-0.1469,-0.1458,-0.1586,-0.1586,-0.1586,-0.1579,0,-0.0874,-0.0915,-0.0946,-0.0999,-0.0996,-0.1025,-0.1074,-0.1124,-0.1203,-0.1297,-0.1311,-0.1422,-0.1424,-0.1497,-0.1501,-0.1553,-0.155,-0.1551,-0.1576,-0.1575,-0.1455,-0.1453,-0.1585,-0.1578,-0.1578,-0.1578,-0.1578,0,-0.0844,-0.0878,-0.0921,-0.0994,-0.0995,-0.106,-0.11,-0.116,-0.1242,-0.1308,-0.1373,-0.1451,-0.1482,-0.1502,-0.1519,-0.1541,-0.1551,-0.157,-0.157,-0.1458,-0.1462,-0.1547,-0.1577,-0.1577,-0.1577,-0.1577,-0.1577,0,-0.0768,-0.0852,-0.0886,-0.0906,-0.0997,-0.1023,-0.1081,-0.1166,-0.1211,-0.1335,-0.1407,-0.1466,-0.1507,-0.1525,-0.1538,-0.1564,-0.1556,-0.1584,-0.1471,-0.1465,-0.1565,-0.1565,-0.1565,-0.1565,-0.1565,-0.1565,-0.1565,0,-0.073,-0.0756,-0.0862,-0.0873,-0.092,-0.1003,-0.1061,-0.1135,-0.1254,-0.1325,-0.1425,-0.1471,-0.1524,-0.1532,-0.1546,-0.1482,-0.1538,-0.145,-0.1445,-0.1571,-0.1571,-0.1565,-0.1565,-0.1565,-0.1565,-0.1565,-0.1565,0,-0.0647,-0.0707,-0.0742,-0.0849,-0.0882,-0.0914,-0.1026,-0.1084,-0.1211,-0.1305,-0.1349,-0.1462,-0.1468,-0.1485,-0.1507,-0.146,-0.1443,-0.14,-0.1517,-0.1523,-0.1357,-0.1358,-0.1293,-0.1289,-0.1286,-0.1283,-0.128,0,-0.0633,-0.0636,-0.0707,-0.0715,-0.0777,-0.0826,-0.0874,-0.1028,-0.1109,-0.1273,-0.1327,-0.1381,-0.1422,-0.1332,-0.1369,-0.1344,-0.1327,-0.1318,-0.1341,-0.1322,-0.1325,-0.1331,-0.1337,-0.1275,-0.1274,-0.1273,-0.1272,0,-0.0598,-0.0608,-0.0624,-0.0634,-0.0686,-0.0742,-0.0848,-0.0893,-0.1074,-0.1171,-0.1256,-0.1279,-0.1261,-0.1251,-0.1217,-0.1209,-0.1337,-0.1281,-0.1289,-0.1312,-0.1298,-0.1306,-0.1316,-0.1259,-0.1261,-0.1262,-0.1263,0,-0.057,-0.0554,-0.0556,-0.0561,-0.0619,-0.0712,-0.0743,-0.0845,-0.0934,-0.1148,-0.1134,-0.1194,-0.1234,-0.1178,-0.1158,-0.1125,-0.1128,-0.1123,-0.114,-0.1154,-0.111,-0.1074,-0.0941,0,0,0,0,0,-0.0553,-0.0508,-0.0497,-0.0529,-0.0591,-0.0656,-0.0772,-0.082,-0.0964,-0.0996,-0.1081,-0.1069,-0.1058,-0.1071,-0.1007,-0.1106,-0.1137,-0.1032,-0.1142,-0.1191,-0.1206,-0.1167,0,0,0,0,0,0,-0.0528,-0.0494,-0.0471,-0.0524,-0.0558,-0.0675,-0.0759,-0.0853,-0.0867,-0.0973,-0.0943,-0.1015,-0.0983,-0.1067,-0.0988,-0.0993,-0.1045,-0.1053,-0.1051,-0.1183,-0.1196,-0.1208,-0.1172,0,0,0,0,0]},{"header":{"parameterUnit":"m.s-1","parameterCategory":2,"la1":30.2991,"la2":30.254,"lo1":-89.0895,"lo2":-89.0444,"dy":0.0017,"dx":0.0017,"nx":28,"ny":28,"refTime":"2025-08-02T09:00:00:Z","depth":"4","parameterNumber":3,"parameterNumberName":"V-component_of_CURRENTS"},"data":[0,0,0,0,0,0,0,0,0,0,0,0,0,0,0,0,0,0,0,0,0,0,0,0,0,0,0,0,0,0,0,0,0,0,0,0,0,0,0,0,0,0,0,0,0,0,0,0,0,0,0,0,0,0,0,0,0,0,-0.0507,-0.0507,0,-0.0503,-0.0503,-0.0503,-0.0539,-0.054,-0.054,-0.0541,-0.051,-0.0508,-0.0507,0,0,0,0,0,0,0,0,0,0,0,0,0,-0.0499,-0.05,-0.0507,-0.0507,-0.0507,-0.0503,-0.0503,-0.0503,-0.0539,-0.054,-0.0541,-0.0541,-0.051,-0.0509,-0.0507,0,0,0,0,0,0,0,0,0,0,0,0,0,-0.0502,-0.05,-0.0507,-0.0522,-0.0523,-0.0503,-0.0503,-0.0503,-0.0539,-0.054,-0.0541,-0.0542,-0.0511,-0.0509,-0.0507,-0.0469,0,0,-0.0499,-0.0498,0,0,0,0,0,0,0,0,-0.0502,-0.0503,-0.052,-0.0521,-0.0522,-0.052,-0.0488,-0.049,-0.0538,-0.0535,-0.0541,-0.0542,-0.0508,-0.0506,-0.0507,-0.0468,-0.0466,-0.0499,-0.0498,-0.0497,-0.0496,0,0,0,0,0,0,0,-0.0502,-0.0503,-0.0508,-0.052,-0.0521,-0.0512,-0.0515,-0.0489,-0.0517,-0.0536,-0.0538,-0.0533,-0.0509,-0.0509,-0.0506,-0.0466,-0.0499,-0.0497,-0.0496,-0.0495,-0.0445,-0.0445,0,0,0,0,0,0,-0.0498,-0.0503,-0.0508,-0.0508,-0.0512,-0.0512,-0.0514,-0.0522,-0.0518,-0.0518,-0.0532,-0.0534,-0.0513,-0.0509,-0.0505,-0.0515,-0.0497,-0.0495,-0.0493,-0.0445,-0.0445,-0.0445,0,0,0,0,0,0,-0.0498,-0.0499,-0.0508,-0.0502,-0.0503,-0.0511,-0.0519,-0.0521,-0.0534,-0.0515,-0.0515,-0.0544,-0.0513,-0.0509,-0.052,-0.0512,-0.0494,-0.0492,-0.0445,-0.0445,-0.0445,-0.05,0,0,0,0,0,0,-0.0498,-0.05,-0.051,-0.0503,-0.0503,-0.0513,-0.0517,-0.052,-0.0527,-0.0531,-0.0524,-0.0522,-0.0514,-0.0524,-0.0518,-0.0509,-0.049,-0.0445,-0.0445,-0.0445,-0.0498,-0.0501,-0.0505,0,0,0,0,0,-0.0498,-0.0504,-0.051,-0.0511,-0.0515,-0.0513,-0.0513,-0.0523,-0.0527,-0.0539,-0.0549,-0.0523,-0.0519,-0.0524,-0.0516,-0.0505,-0.0445,-0.0445,-0.0445,-0.0496,-0.0501,-0.0505,0,0,0,0,0,0,-0.0509,-0.0507,-0.0515,-0.0522,-0.0525,-0.0519,-0.053,-0.0526,-0.0541,-0.0553,-0.0535,-0.0534,-0.054,-0.0514,-0.0518,-0.049,-0.0472,-0.047,-0.0513,-0.0517,-0.052,-0.0484,-0.0488,0,0,0,0,0,-0.0513,-0.0522,-0.0517,-0.0528,-0.0533,-0.0532,-0.0533,-0.0539,-0.0544,-0.0553,-0.0541,-0.0532,-0.0528,-0.0521,-0.0512,-0.0496,-0.0427,-0.0479,-0.0483,-0.0486,-0.0451,-0.0363,-0.0355,-0.0446,-0.0446,-0.0446,0,0,-0.0523,-0.0521,-0.0529,-0.0531,-0.054,-0.0547,-0.0539,-0.055,-0.0549,-0.0544,-0.0548,-0.0548,-0.0531,-0.053,-0.0525,-0.051,-0.0428,-0.0487,-0.049,-0.0452,-0.0362,-0.0353,-0.0345,-0.0446,-0.0446,-0.0446,0,0,-0.0528,-0.0547,-0.055,-0.0557,-0.0564,-0.0568,-0.0572,-0.0568,-0.0568,-0.0567,-0.0571,-0.0565,-0.0547,-0.0534,-0.0525,-0.0532,-0.0458,-0.0532,-0.051,-0.0427,-0.0418,-0.0409,-0.0323,-0.0306,-0.0524,-0.0525,-0.0525,0,-0.053,-0.0544,-0.0552,-0.0556,-0.0567,-0.0578,-0.0587,-0.0584,-0.0581,-0.0571,-0.0576,-0.0543,-0.0539,-0.052,-0.0533,-0.0536,-0.0476,-0.0503,-0.043,-0.0419,-0.0409,-0.0323,-0.0304,-0.0527,-0.0527,-0.0527,-0.0526,0,-0.0538,-0.0552,-0.0561,-0.0576,-0.0589,-0.0605,-0.0605,-0.0607,-0.0605,-0.0588,-0.0566,-0.0554,-0.0525,-0.0529,-0.0535,-0.0471,-0.0448,-0.0454,-0.0418,-0.0403,-0.0314,-0.0293,-0.0531,-0.053,-0.0529,-0.0529,0,0,-0.0518,-0.0555,-0.0557,-0.0578,-0.0605,-0.0617,-0.0622,-0.0619,-0.0603,-0.0588,-0.054,-0.0542,-0.0519,-0.0503,-0.0499,-0.0427,-0.0327,-0.041,-0.0405,-0.0321,-0.013,-0.0171,-0.0151,-0.0323,-0.0319,-0.0316,-0.0101,0,-0.0518,-0.0537,-0.0553,-0.0589,-0.0611,-0.063,-0.0625,-0.0625,-0.0608,-0.0564,-0.0528,-0.049,-0.0514,-0.0491,-0.043,-0.0356,-0.027,-0.0383,-0.0157,-0.0149,-0.0185,-0.0128,-0.0305,-0.0085,-0.0079,-0.0076,-0.0073,0,-0.0512,-0.0532,-0.0563,-0.0599,-0.0608,-0.0632,-0.064,-0.0632,-0.0582,-0.055,-0.0505,-0.0465,-0.0383,-0.0386,-0.0221,-0.0294,-0.0202,-0.0134,-0.0124,-0.0117,-0.015,-0.0097,-0.0034,-0.0037,-0.004,-0.0042,-0.0045,0,-0.0503,-0.0536,-0.0569,-0.0587,-0.0624,-0.0641,-0.0659,-0.0636,-0.0609,-0.0532,-0.0478,-0.0395,-0.0324,-0.0208,-0.0101,-0.014,0.0111,0.0072,0.0134,0.0132,0.0127,0.0116,0.024,0.0239,0.0239,0.0238,0.0238,0,-0.0497,-0.0523,-0.0576,-0.0599,-0.0634,-0.0653,-0.0655,-0.0646,-0.0587,-0.0531,-0.0473,-0.0383,-0.0269,-0.0135,-0.0044,0.0108,0.0158,0.0176,0.0197,0.0095,0.0078,0.0142,0.0128,0.0246,0.0245,0.0243,0.0242,0,-0.0486,-0.0516,-0.0563,-0.0616,-0.0638,-0.0667,-0.0679,-0.0648,-0.0599,-0.0511,-0.0473,-0.0342,-0.0174,-0.0055,0.0156,0.0183,0.0333,0.0382,0.0289,0.0294,0.0291,0.0271,0.0488,0.0488,0.0489,0.0489,0.049,0,-0.0483,-0.0506,-0.0584,-0.0611,-0.0648,-0.0683,-0.0681,-0.0663,-0.062,-0.0479,-0.0419,-0.0243,-0.0149,0.0138,0.0225,0.0416,0.0415,0.0491,0.0374,0.0325,0.0323,0.0302,0.0283,0.049,0.0491,0.0491,0.0491,0,-0.0485,-0.0516,-0.0558,-0.0609,-0.0644,-0.066,-0.0666,-0.0632,-0.0562,-0.0511,-0.0319,-0.0178,0.0011,0.0163,0.0308,0.0429,0.0431,0.0496,0.0495,0.0386,0.033,0.0324,0.0304,0.0493,0.0492,0.0492,0.0492,0,-0.049,-0.0519,-0.0565,-0.0611,-0.064,-0.0632,-0.0637,-0.0562,-0.0513,-0.0367,-0.0299,-0.0101,0.0009,0.0176,0.031,0.0416,0.0417,0.0419,0.0421,0.042,0.0293,0.0206,0.0388,0,0,0,0,0,-0.0489,-0.0519,-0.0553,-0.0604,-0.0618,-0.064,-0.0611,-0.0594,-0.0531,-0.0385,-0.034,-0.0157,0.006,0.0156,0.0262,0.0271,0.0397,0.039,0.039,0.0503,0.0501,0.0354,0,0,0,0,0,0,-0.0494,-0.0533,-0.0551,-0.0575,-0.0602,-0.0612,-0.0599,-0.0555,-0.0471,-0.0386,-0.0257,-0.0173,0.0038,0.0002,0.0253,0.0283,0.0287,0.0495,0.0496,0.0504,0.0502,0.05,0.0349,0,0,0,0,0]}]]